Flag for Trinidad and Tobago Weather past 2 weeks in Port of Spain, Trinidad and Tobago

Now
75 °F

Passing clouds.


Feels Like: 75 °F
Forecast: 75 / 86 °F
Wind: No wind

Location: Piarco International Airport - Trinidad

Current Time: Mar 4, 2015 at 4:07:35 AM

Latest Report: Mar 4, 2015 at 3:00 AM


Visibility: N/A

Pressure: 29.89 "Hg

Humidity: 83%

Dew point: 70 °F

Location of Port of SpainLocation

Historic Weather in Port of Spain — Graph

°F

Port of Spain temperature yesterday

Maximum temperature yesterday: 90 °F (at 2:00 PM)
Minimum temperature yesterday: 70 °F (at 5:00 AM)
Average temperature yesterday: 79 °F

Past Weeks' High & Low Weather Summary

 TemperatureHumidityPressure
High91 °F (Feb 17, 1:00 PM)100% (Feb 26, 11:00 PM)30.04 "Hg (Feb 26, 11:00 PM)
Low68 °F (Feb 19, 6:00 AM)43% (Feb 23, 12:00 PM)29.83 "Hg (Feb 19, 4:00 PM)
Average79 °F75%29.93 "Hg
* Reported Feb 17 2:00 AM — Mar 4 2:00 AM, Port of Spain, Weather by CustomWeather, © 2015

Note: Actual official high and low records may vary slightly from our data, if they occured in-between our weather recording intervals... More about our weather records

Advertising

Port of Spain weather history for previous 24 hours

 ConditionsComfort  
Time TempWeatherWind HumidityBarometerVisibility
2:00 AM
Wed, Mar 4
75 °FPassing clouds.No wind83%29.89 "Hg6 mi
1:00 AM77 °FPassing clouds.No wind83%29.92 "Hg6 mi
12:00 AM77 °FPassing clouds.No wind83%29.92 "Hg6 mi
11:00 PM
Tue, Mar 3
75 °FPassing clouds.3 mph89%29.92 "Hg6 mi
10:00 PM75 °FPassing clouds.No wind94%29.92 "Hg6 mi
9:00 PM77 °FPassing clouds.3 mph79%29.92 "Hg6 mi
8:00 PM79 °FPassing clouds.8 mph74%29.89 "HgN/A
7:00 PM79 °FPassing clouds.9 mph79%29.86 "HgN/A
6:00 PM81 °FPassing clouds.12 mph74%29.86 "Hg4 mi
5:00 PM86 °FSprinkles. Passing clouds.14 mph59%29.86 "Hg5 mi
4:00 PM88 °FScattered clouds.14 mph52%29.83 "HgN/A
3:00 PM90 °FScattered clouds.14 mph52%29.86 "HgN/A
2:00 PM90 °FScattered clouds.14 mph52%29.89 "HgN/A
12:00 PM88 °FScattered clouds.14 mph55%29.92 "HgN/A
11:00 AM88 °FScattered clouds.14 mph55%29.95 "HgN/A
10:00 AM86 °FScattered clouds.9 mph59%29.95 "HgN/A
9:00 AM82 °FScattered clouds.8 mph70%29.95 "HgN/A
8:00 AM77 °FPassing clouds.No wind83%29.92 "HgN/A
7:00 AM72 °FPassing clouds.No wind94%29.89 "HgN/A
6:00 AM72 °FPassing clouds.No wind94%29.86 "HgN/A
5:00 AM70 °FPassing clouds.No wind94%29.86 "HgN/A
4:00 AM72 °FPassing clouds.No wind94%29.86 "HgN/A
Weather by CustomWeather, © 2015

See weather overviewHow to use our weather pages